Tracking 19245 objects as of 14-Aug-2018
HD Live streaming from Space Station
objects crossing your sky now

NOAA 16 DEB

Track NOAA 16 DEB now!
10-day predictions


NORAD ID: 41655
Int'l Code: 2000-055NU
Perigee: 824.9 km
Apogee: 860.0 km
Inclination: 98.8 °
Period: 101.6 minutes
Semi major axis: 7213 km
RCS: Unknown
Launch date: September 21, 2000
Source: United States (US)
Launch site: AIR FORCE WESTERN TEST RANGE (AFWTR)

Note: This is SATELLITE DEBRIS
aabbcc
Your satellite tracking list
Your tracking list is empty




NASA's NSSDC Master Catalog

Two Line Element Set (TLE):
1 41655U 00055NU  18225.44900128 +.00000435 +00000-0 +23751-3 0  9990
2 41655 098.8303 302.1740 0024338 135.6017 224.7114 14.17066949119979
Source of the keplerian elements: AFSPC